This is the latest recevied weather packets stored in our database for station/object DL2GKM-6. If no packets are shown the sender has not sent any weather packets the latest 1 day(s).
| Time | Temp. | Humidity | Pressure | Rain* | Wind** | Luminosity | Snow |
|---|---|---|---|---|---|---|---|
| 1778019046 | 11.11° C | 83% | 1007.8 hPa | 128.78 mm | 4.02 m/s, 241° | - | - |
| 1778018786 | 11.11° C | 82% | 1007.8 hPa | 128.78 mm | 3.13 m/s, 138° | - | - |
| 1778018514 | 11.11° C | 82% | 1007.8 hPa | 128.78 mm | 0.89 m/s, 152° | - | - |
| 1778018270 | 11.67° C | 82% | 1007.8 hPa | 128.78 mm | 0 m/s | - | - |
| 1778018014 | 11.67° C | 82% | 1007.8 hPa | 128.78 mm | 3.58 m/s, 138° | - | - |
| 1778017737 | 11.67° C | 82% | 1007.9 hPa | 128.78 mm | 3.58 m/s, 148° | - | - |
| 1778017461 | 11.67° C | 82% | 1007.9 hPa | 128.78 mm | 3.13 m/s, 148° | - | - |
| 1778017186 | 11.67° C | 82% | 1008 hPa | 128.78 mm | 3.58 m/s, 144° | - | - |
| 1778016901 | 11.67° C | 82% | 1008 hPa | 128.78 mm | 3.58 m/s, 140° | - | - |
| 1778016626 | 11.67° C | 82% | 1007.9 hPa | 128.78 mm | 2.24 m/s, 185° | - | - |
| 1778016352 | 11.67° C | 82% | 1007.9 hPa | 128.78 mm | 3.13 m/s, 178° | - | - |
| 1778016111 | 11.67° C | 82% | 1007.9 hPa | 128.78 mm | 2.24 m/s, 152° | - | - |
| 1778015811 | 11.67° C | 82% | 1007.9 hPa | 128.78 mm | 2.68 m/s, 131° | - | - |
| 1778015554 | 11.67° C | 82% | 1007.9 hPa | 128.78 mm | 2.24 m/s, 131° | - | - |
| 1778015311 | 11.67° C | 82% | 1008 hPa | 128.78 mm | 1.79 m/s, 182° | - | - |
| 1778015051 | 11.67° C | 82% | 1007.9 hPa | 128.78 mm | 1.34 m/s, 148° | - | - |
| 1778014806 | 12.22° C | 82% | 1007.9 hPa | 128.78 mm | 1.79 m/s, 137° | - | - |
| 1778014511 | 12.22° C | 82% | 1007.9 hPa | 128.78 mm | 2.68 m/s, 158° | - | - |
| 1778014211 | 12.22° C | 81% | 1007.9 hPa | 128.78 mm | 1.34 m/s, 152° | - | - |
| 1778013954 | 12.22° C | 81% | 1007.9 hPa | 128.78 mm | 2.68 m/s, 133° | - | - |
| 1778013711 | 12.22° C | 81% | 1007.8 hPa | 128.78 mm | 2.68 m/s, 172° | - | - |
| 1778013471 | 12.22° C | 81% | 1007.8 hPa | 128.78 mm | 0 m/s | - | - |
| 1778013196 | 12.22° C | 80% | 1007.7 hPa | 128.78 mm | 1.79 m/s, 222° | - | - |
| 1778012951 | 12.78° C | 80% | 1007.7 hPa | 128.78 mm | 3.58 m/s, 161° | - | - |
| 1778012651 | 12.78° C | 80% | 1007.7 hPa | 128.78 mm | 2.24 m/s, 141° | - | - |
* Rain latest 24 hours (hover to see other rain measurements)
** Current wind speed in m/s (hover to see current wind gust speed)